Simultaneous Nadir Overpasses (SNOs) Predictions

Prediction of SNOs between METOP-B and TERRA Satellite Orbit:

Table of predicted SNOs for the next 14.0 days since TLE Epoch: 6/20/2015
Index Date (METOP-B) Time (METOP-B) Lat,Lon (METOP-B) SZA (METOP-B ) Date (TERRA) Time (TERRA) Lat,Lon (TERRA) SZA (TERRA ) Distance(km) Time Diff (sec)
1 06/20/2015 21:49:11 -81.30, 79.74 119.27 06/20/2015 21:50:18 -81.30, 79.67 119.25 1.33 67
2 06/20/2015 22:39:51 81.31,-112.51 60.79 06/20/2015 22:39:44 81.31,-112.48 60.79 0.40 7
3 06/23/2015 17:23:33 -81.30, 146.09 119.28 06/23/2015 17:24:36 -81.29, 146.05 119.26 1.05 63
4 06/23/2015 18:14:13 81.31, -46.18 60.77 06/23/2015 18:14:02 81.30, -46.13 60.77 0.89 11
5 06/26/2015 12:57:56 -81.30,-147.60 119.24 06/26/2015 12:58:55 -81.30,-147.43 119.20 2.87 59
6 06/
